Location: Poughquag
(41.6090°N, 73.6820°W)
Time: 03:29:53
(UTC-04:00)

Vanguard 2 Rocket - Pass Details

Date: 30 May 2020
Orbit: 556 x 3324 km, 32.9° (Epoch: 06 July)

Event Time Altitude Azimuth Distance (km) Brightness Sun altitude
Rises 16:37:49 0° 244° (WSW) 3,965 11.0 39.2°
Reaches altitude 10° 16:40:09 10° 239° (WSW) 3,273 10.7 38.8°
Maximum altitude 16:48:25 52° 165° (SSE) 2,205 9.2 37.3°
Drops below altitude 10° 17:02:48 10° 96° (E) 5,513 10.5 34.6°
Sets 17:08:01 0° 93° (E) 6,862 10.9 33.6°
